PRAHALIBU Weather Reports


time (UTC)temp
C
wind
direction
speed
KPH
gust
KPH
rain 1hr
cm
rain 24hr
cm
rain mn
cm
humidity
%
barometer
mb
20260507071836 15 230 14.5 0.0 0.00 0.00 0.00 72
20260507061835 12 240 11.3 0.0 0.00 0.00 0.00 82
20260507051834 12 220 8.0 0.0 0.00 0.00 0.00 87
20260507042040 10 200 3.2 0.0 0.00 0.00 0.00 93
20260507031836 10 190 3.2 0.0 0.00 0.00 0.00 93
20260507021833 11 250 8.0 0.0 0.00 0.00 0.00 93
20260507011935 12 230 8.0 0.0 0.00 0.00 0.00 93
20260507001835 12 230 8.0 0.0 0.00 0.00 0.00 93
20260506231837 12 220 3.2 0.0 0.00 0.00 0.00 93
20260506222037 13 110 8.0 0.0 0.00 0.00 0.00 87
20260506211835 12 120 8.0 0.0 0.00 0.00 0.00 93
20260506201852 15 60 11.3 0.0 0.00 0.00 0.00 82
20260506191956 15 310 3.2 0.0 0.00 0.00 0.00 82
20260506181924 16 80 8.0 0.0 0.00 0.00 0.00 77
20260506171835 16 80 11.3 0.0 0.00 0.00 0.00 67
20260506162038 16 0 8.0 0.0 0.00 0.00 0.00 77
20260506151851 17 310 14.5 0.0 0.00 0.00 0.00 59
20260506141851 21 340 3.2 0.0 0.00 0.00 0.00 43
20260506131851 20 320 8.0 0.0 0.00 0.00 0.00 49
20260506121851 21 170 8.0 0.0 0.00 0.00 0.00 52
20260506111837 20 0 8.0 0.0 0.00 0.00 0.00 52
20260506102038 18 260 8.0 0.0 0.00 0.00 0.00 55
20260506091837 17 0 8.0 0.0 0.00 0.00 0.00 63
20260506081835 16 240 11.3 0.0 0.00 0.00 0.00 72